This demonstration page uses our WeatherBlox Daily Observations layout. Learn more.

Left ArrowRight Arrow

39.92423, -83.80882

Hourly Observations for March 8, 2018

Temp ( °F °C ) Dew Point ( °F °C ) Humidity (%) Winds ( mph kmh ) Pressure ( in mb ) Visibility ( mi km ) Precip ( " mm )
12:56 am 00:56 Clear 28 -2.2 21 -6.1 75 75 W 8 13 29.98 1015 10 16 N/A
1:56 am 01:56 Partly Cloudy with Isolated Snow Showers 28 -2.2 21 -6.1 75 75 WSW 5 7 29.96 1015 9 14 N/A
2:40 am 02:40 Partly Cloudy with Isolated Snow Showers 27 -3 25 -4 93 93 NW 5 7 29.97 1015 2 3 N/A
2:56 am 02:56 Partly Cloudy with Isolated Snow Showers 26 -3.3 24 -4.4 92 92 NNW 6 9 29.94 1014 2 2 N/A
3:17 am 03:17 Partly Cloudy with Isolated Snow Showers 27 -3 25 -4 93 93 NNW 8 13 29.97 1015 3 4 N/A
3:25 am 03:25 Partly Cloudy with Isolated Snow Showers 27 -3 25 -4 93 93 NW 9 15 29.97 1015 1 2 N/A
3:31 am 03:31 Mostly Clear with Snow 27 -3 25 -4 93 93 NW 9 15 29.97 1015 1 1 N/A
3:42 am 03:42 Partly Cloudy with Isolated Snow Showers 25 -4 25 -4 100 100 W 6 9 29.97 1015 1 2 N/A
3:44 am 03:44 Partly Cloudy with Isolated Snow Showers 25 -4 25 -4 100 100 W 7 11 29.97 1015 2 3 N/A
3:52 am 03:52 Partly Cloudy with Isolated Snow Showers 25 -4 23 -5 93 93 W 7 11 29.94 1014 7 11 N/A
3:56 am 03:56 Partly Cloudy with Isolated Snow Showers 25 -3.9 23 -5 92 92 W 7 11 29.93 1014 8 13 N/A
4:56 am 04:56 Clear 25 -3.9 22 -5.6 88 88 W 7 11 29.94 1014 10 16 N/A
5:56 am 05:56 Partly Cloudy with Isolated Snow Showers 24 -4.4 22 -5.6 91 91 W 9 15 29.94 1014 9 14 N/A
6:56 am 06:56 Partly Cloudy with Isolated Snow Showers 25 -3.9 22 -5.6 88 88 W 9 15 29.95 1014 9 14 N/A
7:56 am 07:56 Sunny 25 -3.9 21 -6.1 85 85 W 13 20 29.96 1015 10 16 N/A
8:45 am 08:45 Partly Cloudy with Isolated Snow Showers 27 -3 21 -6 80 80 W 20 31 30.00 1016 2 3 N/A
8:56 am 08:56 Partly Cloudy with Isolated Snow Showers 24 -4.4 20 -6.7 84 84 WNW 14 22 29.98 1015 2 2 N/A
9:05 am 09:05 Partly Cloudy with Isolated Snow Showers 25 -4 21 -6 86 86 WNW 12 19 30.00 1016 3 5 N/A
9:56 am 09:56 Sunny 28 -2.2 18 -7.8 66 66 W 13 20 29.98 1015 10 16 N/A
10:56 am 10:56 Sunny 28 -2.2 17 -8.3 63 63 WNW 18 30 29.98 1015 10 16 N/A
11:56 am 11:56 Sunny 32 undefined 17 -8.3 54 54 WNW 18 30 29.98 1015 10 16 N/A
12:56 pm 12:56 Partly Cloudy with Isolated Snow Showers 29 -1.7 18 -7.8 63 63 WNW 14 22 29.97 1015 9 14 N/A
1:56 pm 13:56 Partly Cloudy with Isolated Snow Showers 29 -1.7 19 -7.2 66 66 W 18 30 29.97 1015 9 14 N/A
2:56 pm 14:56 Partly Cloudy with Isolated Snow Showers 30 -1.1 18 -7.8 61 61 W 18 30 29.97 1015 9 14 N/A
3:56 pm 15:56 Partly Cloudy with Isolated Snow Showers 29 -1.7 20 -6.7 69 69 W 21 33 29.98 1015 9 14 N/A
4:56 pm 16:56 Partly Cloudy with Isolated Snow Showers 28 -2.2 19 -7.2 69 69 W 20 31 30.00 1016 9 14 N/A
5:56 pm 17:56 Partly Cloudy with Isolated Snow Showers 28 -2.2 20 -6.7 72 72 W 17 28 30.01 1016 9 14 N/A
6:56 pm 18:56 Partly Cloudy with Isolated Snow Showers 28 -2.2 21 -6.1 75 75 W 20 31 30.02 1017 9 14 N/A
7:56 pm 19:56 Clear 28 -2.2 21 -6.1 75 75 W 18 30 30.03 1017 10 16 N/A
8:56 pm 20:56 Clear 27 -2.8 20 -6.7 75 75 W 17 28 30.04 1017 10 16 N/A
9:56 pm 21:56 Clear 27 -2.8 21 -6.1 78 78 W 13 20 30.04 1017 10 16 N/A
10:56 pm 22:56 Clear 27 -2.8 21 -6.1 78 78 W 12 19 30.04 1017 9 14 N/A
11:56 pm 23:56 Partly Cloudy with Isolated Snow Showers 27 -2.8 20 -6.7 75 75 W 13 20 30.04 1017 9 14 N/A

Powered by AerisWeather